Stations météo

Publicité
Cap Ferret, France (7500): Température de l'air & dewpoint: 13.10.2017 21:00:00 - 19.10.2017 21:00:00 (CEST)Cap Ferret, France (7500): Vitesse du vent & gusts: 13.10.2017 21:00:00 - 19.10.2017 21:00:00 (CEST)Cap Ferret, France (7500): Direction du vent: 13.10.2017 21:00:00 - 19.10.2017 21:00:00 (CEST)Cap Ferret, France (7500): reduced air pressure: 13.10.2017 21:00:00 - 19.10.2017 21:00:00 (CEST)Cap Ferret, France (7500): visibility: 13.10.2017 21:00:00 - 19.10.2017 21:00:00 (CEST)Cap Ferret, France (7500): Ensoleillement: 13.10.2017 21:00:00 - 19.10.2017 21:00:00 (CEST)Cap Ferret, France (7500): Quantités de précipitations: 13.10.2017 21:00:00 - 19.10.2017 21:00:00 (CEST)
Date & Time tt [°C] td [°C] ff [km/h] ff [knt] fx [km/h] fx [knt] dd ppp [hPa] vv [km] sd [min] rr [mm]
19.10.2017 21:00:00 16,4 13,3 14 7 27 14 SSE 1011,7 - 0 0,0
19.10.2017 20:00:00 17,2 13,1 19 10 28 15 S 1011,7 10 0 0,0
19.10.2017 19:00:00 17,8 13,3 19 11 28 15 S 1010,9 - 55 0,0
19.10.2017 18:00:00 18,6 13,5 16 9 24 13 SW 1011,2 - 21 0,0
19.10.2017 17:00:00 19,7 12,9 14 8 26 14 SW 1010,9 10 55 0,0
19.10.2017 16:00:00 20,6 13,5 14 7 23 13 SW 1010,7 - 57 0,0
19.10.2017 15:00:00 21,1 13,5 13 7 19 10 SSW 1010,8 - 58 0,0
19.10.2017 14:00:00 20,4 13,4 11 6 23 12 SW 1011,3 8 60 0,0
19.10.2017 13:00:00 19,2 13,1 12 6 24 13 WSW 1011,5 - 40 0,0
19.10.2017 12:00:00 19,1 13,7 17 9 24 13 WSW 1011,3 - 35 0,0
19.10.2017 11:00:00 18,2 13,3 15 8 21 12 W 1010,7 13 43 0,0
19.10.2017 10:00:00 17,6 13,7 14 8 27 15 W 1010,5 - 24 0,0
19.10.2017 09:00:00 16,6 13,1 20 11 24 13 W 1010,0 - 0 0,0
19.10.2017 08:00:00 16,3 13,6 21 11 27 15 W 1009,7 8 0 0,0
19.10.2017 07:00:00 15,6 13,6 21 12 27 15 W 1009,7 - 0 0,0
19.10.2017 06:00:00 15,7 14,4 16 9 21 11 W 1009,0 - 0 0,4
19.10.2017 05:00:00 15,3 14,0 9 5 19 10 SSE 1009,2 8 0 0,0
19.10.2017 04:00:00 15,1 13,8 11 6 24 13 SSE 1009,1 - 0 0,0
19.10.2017 03:00:00 15,2 13,6 9 5 20 11 SSE 1008,9 - 0 0,0
19.10.2017 02:00:00 15,6 14,1 9 5 16 9 ESE 1009,3 8 0 0,0
19.10.2017 01:00:00 15,8 14,0 4 2 18 10 S 1009,4 - 0 0,0
19.10.2017 00:00:00 15,6 13,4 14 8 23 12 WSW 1009,4 - 0 0,0
18.10.2017 23:00:00 15,4 13,8 13 7 25 13 W 1009,1 8 0 0,0
18.10.2017 22:00:00 15,4 13,9 17 9 27 14 W 1009,2 - 0 0,2
18.10.2017 21:00:00 15,9 14,6 17 9 24 13 WSW 1009,5 - 0 0,0
18.10.2017 20:00:00 16,2 14,9 14 7 35 19 WNW 1009,0 6 0 0,0
18.10.2017 19:00:00 16,3 15,2 29 16 56 30 W 1008,3 - 0 18,8
18.10.2017 18:00:00 18,0 16,2 8 4 21 12 N 1007,8 - 0 0,4
18.10.2017 17:00:00 18,0 16,2 13 7 23 12 NE 1008,2 8 0 0,4
18.10.2017 16:00:00 18,1 16,1 13 7 23 12 NE 1008,3 - 0 0,0
18.10.2017 15:00:00 18,1 15,9 10 5 16 8 NE 1009,0 - 0 0,2
18.10.2017 14:00:00 18,3 16,3 8 4 13 7 WNW 1010,3 8 0 0,0
18.10.2017 13:00:00 18,2 16,7 3 2 18 10 WNW 1011,0 - 0 0,2
18.10.2017 12:00:00 17,4 15,7 12 7 33 18 SE 1011,1 - 0 1,0
18.10.2017 11:00:00 16,9 15,2 16 9 36 19 SE 1011,6 6 0 0,6
18.10.2017 10:00:00 16,6 14,8 14 7 28 15 ESE 1011,2 - 39 0,0
18.10.2017 09:00:00 16,2 14,9 17 9 28 15 ESE 1011,3 - 0 0,0
18.10.2017 08:00:00 16,4 14,9 11 6 21 11 E 1011,2 8 0 0,0
18.10.2017 07:00:00 17,1 15,4 10 6 29 15 ESE 1011,7 - 0 1,0
18.10.2017 06:00:00 17,8 15,2 19 10 36 20 SSE 1012,3 - 0 0,4
18.10.2017 05:00:00 18,0 14,9 17 9 32 18 SE 1012,4 8 0 0,0
18.10.2017 04:00:00 18,4 14,9 8 4 32 17 ESE 1012,4 8 0 0,2
18.10.2017 03:00:00 18,7 14,8 17 9 32 17 SE 1013,2 - 0 0,0
18.10.2017 02:00:00 19,2 14,7 18 10 31 17 ESE 1013,4 8 0 0,0
18.10.2017 01:00:00 19,8 14,6 8 5 27 14 E 1013,8 - 0 0,0
18.10.2017 00:00:00 20,1 15,7 11 6 26 14 SSE 1014,4 - 0 0,0
17.10.2017 23:00:00 20,9 14,8 19 11 32 17 S 1014,5 8 0 0,0
17.10.2017 22:00:00 19,9 15,1 5 3 11 6 ESE 1014,2 - 0 0,0
17.10.2017 21:00:00 19,9 14,3 9 5 14 8 S 1014,1 - 0 0,0
17.10.2017 20:00:00 20,1 14,7 7 4 15 8 SSE 1014,2 8 0 0,0
17.10.2017 19:00:00 21,6 13,5 9 5 17 9 SW 1014,0 - 6 0,0
17.10.2017 18:00:00 23,3 15,1 9 5 18 10 S 1013,9 - 60 0,0
17.10.2017 17:00:00 24,9 13,8 13 7 21 12 S 1014,2 8 60 0,0
17.10.2017 16:00:00 25,5 14,6 11 6 21 11 SSW 1014,7 - 60 0,0
17.10.2017 15:00:00 26,2 15,6 9 5 21 11 S 1015,3 - 60 0,0
17.10.2017 14:00:00 23,8 16,3 9 5 24 13 SE 1016,3 8 60 0,0
17.10.2017 13:00:00 20,7 16,5 18 10 27 14 ESE 1017,1 - 54 0,0
17.10.2017 12:00:00 18,1 15,4 18 10 33 18 ESE 1017,7 - 50 0,0
17.10.2017 11:00:00 16,4 14,6 18 10 39 21 E 1018,2 7 51 0,0
17.10.2017 10:00:00 15,9 14,1 24 13 42 23 ESE 1018,4 - 60 0,0
17.10.2017 09:00:00 15,3 14,0 25 14 46 25 ESE 1018,4 - 10 0,0
17.10.2017 08:00:00 15,4 13,9 24 13 45 24 ESE 1018,4 - 0 0,0
17.10.2017 07:00:00 15,1 14,0 20 11 42 23 ESE 1018,6 - 0 0,0
17.10.2017 06:00:00 15,0 14,0 17 9 32 18 ESE 1019,4 - 0 0,0
17.10.2017 05:00:00 15,1 13,8 11 6 23 13 SE 1019,9 1,5 0 0,0
17.10.2017 04:00:00 15,8 14,5 18 10 24 13 ESE 1020,5 - 0 0,0
17.10.2017 03:00:00 16,6 15,1 13 7 24 13 NE 1021,2 - 0 0,0
17.10.2017 02:00:00 16,8 15,0 14 8 27 15 ENE 1021,8 7 0 0,0
17.10.2017 01:00:00 17,0 14,8 14 7 22 12 ENE 1022,3 - 0 0,0
17.10.2017 00:00:00 17,1 14,7 13 7 28 15 NE 1023,0 - 0 0,0
16.10.2017 23:00:00 17,1 14,4 10 5 19 10 NNE 1022,9 10 0 0,0
16.10.2017 22:00:00 17,9 15,5 11 6 21 11 NNE 1022,7 - 0 0,0
16.10.2017 21:00:00 18,6 16,2 13 7 29 16 NNE 1022,8 - 0 0,0
16.10.2017 20:00:00 19,1 16,5 14 8 39 21 NNW 1022,7 10 0 0,0
16.10.2017 19:00:00 20,3 17,1 18 10 29 15 NW 1022,3 - 14 0,0
16.10.2017 18:00:00 22,1 17,2 10 6 16 9 W 1022,0 - 60 0,0
16.10.2017 17:00:00 24,0 16,3 8 4 15 8 WSW 1021,8 - 60 0,0
16.10.2017 16:00:00 25,0 15,9 9 5 23 12 SSW 1021,8 - 60 0,0
16.10.2017 15:00:00 25,3 15,3 15 8 29 16 SSW 1021,7 - 60 0,0
16.10.2017 14:00:00 25,6 15,0 16 9 31 17 SSW 1021,8 15 60 0,0
16.10.2017 13:00:00 24,1 16,1 10 5 25 13 S 1021,7 - 60 0,0
16.10.2017 12:00:00 23,3 15,6 14 7 31 17 SE 1021,2 - 60 0,0
16.10.2017 11:00:00 20,8 15,6 15 8 28 15 SE 1020,8 15 60 0,0
16.10.2017 10:00:00 18,5 15,4 17 9 37 20 ESE 1020,3 - 60 0,0
16.10.2017 09:00:00 17,3 14,9 23 13 37 20 SE 1019,8 - 0 0,0
16.10.2017 08:00:00 17,0 15,0 20 11 39 21 ESE 1019,4 - 0 0,0
16.10.2017 07:00:00 17,3 15,3 26 14 39 21 ESE 1019,3 - 0 0,0
16.10.2017 06:00:00 17,4 15,2 25 13 42 23 ESE 1019,0 - 0 0,0
16.10.2017 05:00:00 17,7 15,3 20 11 36 19 ESE 1019,3 15 0 0,0
16.10.2017 04:00:00 18,0 15,4 21 11 37 20 ESE 1019,8 - 0 0,0
16.10.2017 03:00:00 18,5 15,4 19 10 40 22 ESE 1020,3 - 0 0,0
16.10.2017 02:00:00 19,1 15,4 24 13 48 26 ESE 1020,4 10 0 0,0
16.10.2017 01:00:00 19,7 15,1 23 13 42 23 ESE 1020,4 - 0 0,0
16.10.2017 00:00:00 20,5 15,1 23 12 42 23 ESE 1020,6 - 0 0,0
15.10.2017 23:00:00 21,2 15,3 21 11 37 20 ESE 1020,5 10 0 0,0
15.10.2017 22:00:00 22,2 15,5 18 10 34 18 ESE 1020,6 - 0 0,0
15.10.2017 21:00:00 22,9 16,0 16 8 28 15 ESE 1020,7 - 0 0,0
15.10.2017 20:00:00 22,7 15,8 13 7 17 9 ESE 1020,6 10 0 0,0
15.10.2017 19:00:00 25,2 15,2 11 6 18 10 ESE 1020,2 - 19 0,0
15.10.2017 18:00:00 26,6 15,3 9 5 22 12 SE 1020,1 - 60 0,0
15.10.2017 17:00:00 27,0 15,4 13 7 20 11 SE 1020,3 10 60 0,0
15.10.2017 16:00:00 28,3 16,2 6 3 23 12 S 1020,8 - 60 0,0
15.10.2017 15:00:00 27,2 16,2 8 5 27 15 SE 1021,1 - 60 0,0
15.10.2017 14:00:00 25,3 16,4 14 8 29 16 SE 1021,5 10 60 0,0
15.10.2017 13:00:00 23,3 16,1 14 8 28 15 SE 1022,3 - 60 0,0
15.10.2017 12:00:00 21,6 15,4 15 8 27 15 SE 1022,5 - 60 0,0
15.10.2017 11:00:00 19,5 14,9 17 9 29 16 ESE 1022,4 - 60 0,0
15.10.2017 10:00:00 17,2 14,3 18 10 31 17 ESE 1022,3 - 60 0,0
15.10.2017 09:00:00 15,9 13,7 19 10 29 16 ESE 1022,0 - 6 0,0
15.10.2017 08:00:00 15,5 13,7 20 11 33 18 ESE 1021,7 10 0 0,0
15.10.2017 07:00:00 15,6 13,8 20 11 31 17 ESE 1021,7 - 0 0,0
15.10.2017 06:00:00 15,8 13,8 16 9 27 14 ESE 1021,6 - 0 0,0
15.10.2017 05:00:00 16,4 14,1 16 9 26 14 ESE 1021,5 10 0 0,0
15.10.2017 04:00:00 17,0 14,3 16 9 28 15 ESE 1021,7 - 0 0,0
15.10.2017 03:00:00 17,1 14,0 14 8 29 16 ESE 1021,9 - 0 0,0
15.10.2017 02:00:00 18,1 14,2 20 11 40 21 ESE 1021,9 10 0 0,0
15.10.2017 01:00:00 18,9 14,2 22 12 37 20 SE 1022,0 - 0 0,0
15.10.2017 00:00:00 19,7 14,3 20 11 33 18 ESE 1021,9 - 0 0,0
14.10.2017 23:00:00 19,4 14,4 18 10 27 15 ESE 1022,2 10 0 0,0
14.10.2017 22:00:00 17,7 14,6 4 2 14 8 ENE 1022,2 - 0 0,0
14.10.2017 21:00:00 19,2 15,1 4 2 18 10 E 1022,1 - 0 0,0
14.10.2017 20:00:00 19,7 15,3 9 5 13 7 ENE 1021,9 10 0 0,0
14.10.2017 19:00:00 22,3 15,4 7 4 22 12 NE 1021,8 - 55 0,0
14.10.2017 18:00:00 24,2 14,3 15 8 25 13 ESE 1021,8 - 60 0,0
14.10.2017 17:00:00 24,3 15,8 3 2 10 6 E 1022,1 8 60 0,0
14.10.2017 16:00:00 23,8 17,3 8 4 14 8 WNW 1022,5 - 60 0,0
14.10.2017 15:00:00 23,1 17,1 8 5 15 8 WNW 1022,9 - 60 0,0
14.10.2017 14:00:00 22,4 16,2 6 4 21 12 SE 1023,7 10 60 0,0
14.10.2017 13:00:00 20,9 16,1 9 5 16 9 ESE 1024,3 - 60 0,0
14.10.2017 12:00:00 20,1 15,9 9 5 19 10 SE 1024,7 - 44 0,0
14.10.2017 11:00:00 18,7 16,1 11 6 19 10 SE 1024,8 - 2 0,0
14.10.2017 10:00:00 17,7 15,5 14 7 22 12 S 1024,7 - 0 0,0
14.10.2017 09:00:00 17,5 15,8 10 6 18 10 SSE 1024,3 - 0 0,0
14.10.2017 08:00:00 17,6 16,1 9 5 19 10 S 1023,9 6 0 0,0
14.10.2017 07:00:00 17,8 16,5 10 6 19 10 S 1023,9 - 0 0,0
14.10.2017 06:00:00 18,2 17,2 10 5 20 11 SSW 1023,9 - 0 0,0
14.10.2017 05:00:00 17,8 17,2 11 6 19 11 S 1023,8 3,0 0 0,0
14.10.2017 04:00:00 14,6 12,6 9 5 13 7 SE 1024,0 - 0 0,0
14.10.2017 03:00:00 16,1 13,8 8 4 20 11 E 1024,4 - 0 0,0
14.10.2017 02:00:00 15,3 13,5 5 3 16 8 ENE 1024,5 8 0 0,0
14.10.2017 01:00:00 16,1 14,1 12 7 17 9 NE 1024,7 - 0 0,0
14.10.2017 00:00:00 16,9 15,2 14 8 18 10 NE 1024,4 - 0 0,0
13.10.2017 23:00:00 17,2 14,8 11 6 23 12 ENE 1024,2 8 0 0,0
13.10.2017 22:00:00 16,6 14,6 14 8 17 9 NE 1024,2 - 0 0,0
13.10.2017 21:00:00 17,4 14,5 9 5 14 7 ENE 1024,1 - 0 0,0

tt = Température de l'air
td = dewpoint
ff = Vitesse du vent
fx = gusts
dd = Direction du vent
ppp = reduced air pressure
vv = visibility
sd = Ensoleillement
rr = Quantités de précipitations

stations d'obs. à proximité